Weather History for K3MW - October, 2012

Change the Weather History Date:

Saturday, October 6, 2012

  Actual Average Record
Temperature  
Mean Temperature 27 °F -  
Max Temperature 33 °F - - ()
Min Temperature 21 °F - - ()
Degree Days  
Heating Degree Days 38    
Moisture  
Dew Point 7 °F    
Average Humidity 47    
Maximum Humidity 74    
Minimum Humidity 29    
Precipitation  
Precipitation 0.00 in - - ()
Sea Level Pressure  
Sea Level Pressure 30.04 in    
Wind  
Wind Speed 11 mph (West)    
Max Wind Speed 16 mph    
Max Gust Speed 23 mph    
Visibility 10 miles    
Events      
T = Trace of Precipitation, MM = Missing Value Source: NWS Daily Summary

Daily Weather History Graph

Daily Weather History Graph

Search for Another Location

Airport or City:

Trip Planner

Search our weather history database for the weather conditions in past years. The results will help you decide how hot, cold, wet, or windy it might be!

Date:

Astronomy

Oct. 06, 2012 Rise Set
Actual Time 7:09 AM MDT 6:40 PM MDT
Civil Twilight 6:41 AM MDT 7:07 PM MDT
Nautical Twilight 6:10 AM MDT 7:38 PM MDT
Astronomical Twilight 5:38 AM MDT 8:10 PM MDT
Moon 10:57 PM MDT (10/6) 1:06 PM MDT (10/6)
Length of Visible Light 12h 25m
Length of Day
11h 31m
Waning Gibbous, 65% of the Moon is Illuminated
Oct 6
Waning Gibbous
Oct 8
Last Quarter
Oct 15
New
Oct 21
First Quarter
Oct 29
Full

Hourly Weather History & Observations

Time (MDT) Temp. Windchill Dew Point Humidity Pressure Visibility Wind Dir Wind Speed Gust Speed Precip Events Conditions
12:03 AM 32.0 °F 22.5 °F 3.2 °F 30% 30.01 in 10.0 mi West 12.7 mph 20.7 mph N/A   Clear
12:26 AM 32.0 °F 24.2 °F 3.2 °F 30% 30.01 in 10.0 mi West 9.2 mph 20.7 mph N/A   Clear
12:44 AM 32.0 °F 22.1 °F 3.2 °F 30% 30.00 in 10.0 mi West 13.8 mph 23.0 mph N/A   Clear
1:04 AM 30.2 °F 18.9 °F 3.2 °F 32% 30.00 in 10.0 mi West 16.1 mph 20.7 mph N/A   Clear
1:24 AM 30.2 °F 19.8 °F 5.0 °F 34% 30.00 in 10.0 mi West 13.8 mph 20.7 mph N/A   Clear
1:44 AM 28.4 °F 19.1 °F 6.8 °F 40% 30.01 in 10.0 mi West 10.4 mph - N/A   Clear
2:04 AM 28.4 °F 18.5 °F 5.0 °F 37% 30.01 in 10.0 mi WSW 11.5 mph 23.0 mph N/A   Clear
2:25 AM 26.6 °F 15.2 °F 8.6 °F 47% 30.00 in 10.0 mi West 13.8 mph 21.9 mph N/A   Clear
2:44 AM 26.6 °F 15.7 °F 8.6 °F 47% 30.01 in 10.0 mi West 12.7 mph 19.6 mph N/A   Clear
3:24 AM 24.8 °F 13.4 °F 10.4 °F 54% 30.00 in 10.0 mi West 12.7 mph 21.9 mph N/A   Clear
3:44 AM 23.0 °F 11.7 °F 10.4 °F 59% 30.00 in 10.0 mi West 11.5 mph 17.3 mph N/A   Clear
4:04 AM 23.0 °F 11.1 °F 12.2 °F 63% 30.00 in 10.0 mi West 12.7 mph 18.4 mph N/A   Clear
4:23 AM 23.0 °F 11.1 °F 12.2 °F 63% 30.00 in 10.0 mi West 12.7 mph 19.6 mph N/A   Clear
4:44 AM 21.2 °F 8.9 °F 12.2 °F 68% 30.00 in 10.0 mi West 12.7 mph 17.3 mph N/A   Clear
5:04 AM 21.2 °F 9.5 °F 12.2 °F 68% 30.01 in 10.0 mi West 11.5 mph - N/A   Clear
5:26 AM 21.2 °F 7.8 °F 14.0 °F 74% 30.01 in 10.0 mi West 15.0 mph - N/A   Clear
5:44 AM 21.2 °F 8.9 °F 12.2 °F 68% 30.03 in 10.0 mi West 12.7 mph 18.4 mph N/A   Clear
6:03 AM 21.2 °F 10.1 °F 12.2 °F 68% 30.03 in 10.0 mi West 10.4 mph 18.4 mph N/A   Clear
6:23 AM 21.2 °F 10.1 °F 14.0 °F 74% 30.03 in 10.0 mi WNW 10.4 mph - N/A   Clear
6:44 AM 21.2 °F 11.7 °F 14.0 °F 74% 30.04 in 10.0 mi WNW 8.1 mph - N/A   Clear
7:03 AM 21.2 °F 10.1 °F 14.0 °F 74% 30.04 in 10.0 mi WNW 10.4 mph - N/A   Clear
7:24 AM 21.2 °F 10.9 °F 14.0 °F 74% 30.04 in 10.0 mi WNW 9.2 mph - N/A   Clear
7:45 AM 21.2 °F 10.1 °F 14.0 °F 74% 30.04 in 10.0 mi WNW 10.4 mph - N/A   Clear
8:02 AM 21.2 °F 10.9 °F 14.0 °F 74% 30.05 in 10.0 mi WNW 9.2 mph - N/A   Clear
8:24 AM 21.2 °F 10.9 °F 12.2 °F 68% 30.05 in 10.0 mi WNW 9.2 mph - N/A   Clear
8:45 AM 21.2 °F 10.9 °F 12.2 °F 68% 30.06 in 10.0 mi West 9.2 mph - N/A   Clear
9:04 AM 23.0 °F 13.9 °F 14.0 °F 68% 30.07 in 10.0 mi WNW 8.1 mph - N/A   Clear
9:24 AM 23.0 °F 13.9 °F 14.0 °F 68% 30.07 in 10.0 mi WNW 8.1 mph - N/A   Clear
9:44 AM 23.0 °F 13.9 °F 14.0 °F 68% 30.08 in 10.0 mi West 8.1 mph - N/A   Clear
10:05 AM 23.0 °F 14.7 °F 14.0 °F 68% 30.08 in 10.0 mi West 6.9 mph - N/A   Clear
10:25 AM 24.8 °F 16.1 °F 14.0 °F 64% 30.08 in 10.0 mi West 8.1 mph - N/A   Clear
10:44 AM 24.8 °F 16.1 °F 12.2 °F 59% 30.08 in 10.0 mi West 8.1 mph - N/A   Clear
11:04 AM 26.6 °F 18.2 °F 14.0 °F 59% 30.08 in 10.0 mi WNW 8.1 mph - N/A   Clear
11:23 AM 26.6 °F 17.5 °F 12.2 °F 55% 30.08 in 10.0 mi WNW 9.2 mph - N/A   Clear
11:45 AM 26.6 °F 17.5 °F 10.4 °F 51% 30.08 in 10.0 mi West 9.2 mph - N/A   Scattered Clouds
12:04 PM 26.6 °F 15.2 °F 8.6 °F 47% 30.07 in 10.0 mi WNW 13.8 mph 21.9 mph N/A   Scattered Clouds
12:24 PM 28.4 °F 19.7 °F 8.6 °F 43% 30.08 in 10.0 mi NW 9.2 mph 23.0 mph N/A   Clear
12:45 PM 28.4 °F 17.5 °F 8.6 °F 43% 30.07 in 10.0 mi NW 13.8 mph 19.6 mph N/A   Clear
1:03 PM 28.4 °F 18.0 °F 6.8 °F 40% 30.07 in 10.0 mi West 12.7 mph 20.7 mph N/A   Clear
1:24 PM 30.2 °F 20.2 °F 5.0 °F 34% 30.06 in 10.0 mi WNW 12.7 mph 19.6 mph N/A   Scattered Clouds
1:45 PM 32.0 °F 23.6 °F 5.0 °F 32% 30.06 in 10.0 mi WNW 10.4 mph 19.6 mph N/A   Clear
2:04 PM 32.0 °F 24.8 °F 3.2 °F 30% 30.05 in 10.0 mi West 8.1 mph 16.1 mph N/A   Clear
2:25 PM 32.0 °F 23.6 °F 5.0 °F 32% 30.04 in 10.0 mi WNW 10.4 mph 16.1 mph N/A   Clear
2:44 PM 32.0 °F 23.0 °F 6.8 °F 35% 30.04 in 10.0 mi West 11.5 mph - N/A   Clear
3:05 PM 32.0 °F 23.6 °F 6.8 °F 35% 30.04 in 10.0 mi West 10.4 mph - N/A   Clear
3:25 PM 33.8 °F 27.7 °F 5.0 °F 30% 30.04 in 10.0 mi WNW 6.9 mph - N/A   Clear
4:04 PM 32.0 °F 23.6 °F 3.2 °F 30% 30.03 in 10.0 mi WNW 10.4 mph - N/A   Clear
4:24 PM 32.0 °F 24.2 °F 3.2 °F 30% 30.03 in 10.0 mi West 9.2 mph - N/A   Clear
4:44 PM 30.2 °F 21.9 °F 1.4 °F 29% 30.03 in 10.0 mi WSW 9.2 mph - N/A   Scattered Clouds
5:04 PM 30.2 °F 23.4 °F 3.2 °F 32% 30.04 in 10.0 mi West 6.9 mph - N/A   Scattered Clouds
5:24 PM 30.2 °F 22.6 °F 3.2 °F 32% 30.03 in 10.0 mi WNW 8.1 mph - N/A   Scattered Clouds
5:43 PM 28.4 °F 19.7 °F 3.2 °F 34% 30.03 in 10.0 mi WNW 9.2 mph - N/A   Scattered Clouds
6:03 PM 28.4 °F 19.7 °F -0.4 °F 29% 30.04 in 10.0 mi West 9.2 mph - N/A   Scattered Clouds
6:24 PM 28.4 °F 19.7 °F 1.4 °F 31% 30.04 in 10.0 mi WNW 9.2 mph - N/A   Mostly Cloudy
6:44 PM 28.4 °F 20.4 °F 1.4 °F 31% 30.04 in 10.0 mi West 8.1 mph - N/A   Mostly Cloudy
7:02 PM 26.6 °F 18.2 °F 3.2 °F 37% 30.04 in 10.0 mi WNW 8.1 mph - N/A   Overcast
7:24 PM 26.6 °F 18.2 °F 3.2 °F 37% 30.04 in 10.0 mi West 8.1 mph - N/A   Overcast
7:43 PM 26.6 °F 18.2 °F 3.2 °F 37% 30.04 in 10.0 mi West 8.1 mph - N/A   Overcast
8:03 PM 26.6 °F 17.5 °F 3.2 °F 37% 30.04 in 10.0 mi West 9.2 mph - N/A   Overcast
8:24 PM 26.6 °F 19.1 °F 3.2 °F 37% 30.04 in 10.0 mi West 6.9 mph - N/A   Scattered Clouds
8:44 PM 26.6 °F 18.2 °F 3.2 °F 37% 30.03 in 10.0 mi West 8.1 mph - N/A   Scattered Clouds
9:04 PM 26.6 °F 18.2 °F 1.4 °F 34% 30.03 in 10.0 mi WSW 8.1 mph - N/A   Scattered Clouds
9:25 PM 26.6 °F 16.8 °F 1.4 °F 34% 30.03 in 10.0 mi WSW 10.4 mph - N/A   Clear
9:44 PM 24.8 °F 15.3 °F 3.2 °F 40% 30.03 in 10.0 mi WSW 9.2 mph - N/A   Clear
10:03 PM 24.8 °F 16.1 °F 3.2 °F 40% 30.03 in 10.0 mi WSW 8.1 mph - N/A   Clear
10:24 PM 24.8 °F 16.1 °F 3.2 °F 40% 30.03 in 10.0 mi WSW 8.1 mph - N/A   Clear
10:43 PM 24.8 °F 16.1 °F 3.2 °F 40% 30.03 in 10.0 mi WSW 8.1 mph - N/A   Clear
11:04 PM 24.8 °F 16.9 °F 3.2 °F 40% 30.03 in 10.0 mi West 6.9 mph - N/A   Clear
11:24 PM 24.8 °F 16.1 °F 3.2 °F 40% 30.02 in 10.0 mi West 8.1 mph - N/A   Clear
11:44 PM 24.8 °F 16.1 °F 3.2 °F 40% 30.02 in 10.0 mi West 8.1 mph - N/A   Clear